Flag for U.S.A. Weather past 2 weeks in Pasco, Washington, U.S.A.

Now
41 °F

Sunny.


Feels Like: 41 °F
Forecast: 20 / 48 °F
Wind: No wind

Location: Tri-Cities Airport

Current Time: Mar 1, 2015 at 12:00:16 PM

Latest Report: Mar 1, 2015 at 10:53 AM


Visibility: 10 mi

Pressure: 30.29 "Hg

Humidity: 47%

Dew point: 22 °F

Location of PascoLocation

Historic Weather in Pasco — Graph

°F

Pasco temperature yesterday

Maximum temperature yesterday: 53 °F (at 2:53 PM)
Minimum temperature yesterday: 22 °F (at 11:53 PM)
Average temperature yesterday: 40 °F

Past Weeks' High & Low Weather Summary

 TemperatureHumidityPressure
High61 °F (Feb 14, 2:53 PM)100% (Feb 14, 8:53 PM)30.56 "Hg (Feb 14, 8:53 PM)
Low16 °F (Mar 1, 5:53 AM)17% (Feb 22, 1:53 PM)29.71 "Hg (Feb 27, 2:53 PM)
Average41 °F69%30.26 "Hg
* Reported Feb 14 9:53 AM — Mar 1 9:53 AM, Pasco, Weather by CustomWeather, © 2015

Note: Actual official high and low records may vary slightly from our data, if they occured in-between our weather recording intervals... More about our weather records

Advertising

Pasco weather history for previous 24 hours

 ConditionsComfort  
Time TempWeatherWind HumidityBarometerVisibility
9:53 AM
Sun, Mar 1
37 °FSunny.3 mph54%30.30 "Hg10 mi
8:53 AM31 °FSunny.No wind67%30.32 "Hg10 mi
7:53 AM24 °FSunny.No wind81%30.31 "Hg10 mi
6:53 AM16 °FSunny.No wind92%30.32 "Hg10 mi
5:53 AM16 °FClear.No wind92%30.31 "Hg10 mi
4:53 AM19 °FClear.5 mph85%30.31 "Hg10 mi
3:53 AM21 °FClear.No wind78%30.31 "Hg10 mi
2:53 AM19 °FClear.No wind85%30.30 "Hg10 mi
1:53 AM22 °FClear.3 mph75%30.31 "Hg10 mi
12:53 AM21 °FClear.7 mph78%30.30 "Hg10 mi
11:53 PM
Sat, Feb 28
22 °FClear.7 mph78%30.29 "Hg10 mi
10:53 PM26 °FClear.6 mph63%30.27 "Hg10 mi
9:53 PM26 °FClear.No wind66%30.26 "Hg10 mi
8:53 PM27 °FClear.No wind66%30.24 "Hg10 mi
7:53 PM34 °FClear.No wind44%30.22 "Hg10 mi
6:53 PM32 °FClear.7 mph52%30.21 "Hg10 mi
5:53 PM39 °FClear.9 mph38%30.18 "Hg10 mi
4:53 PM50 °FSunny.14 mph19%30.17 "Hg10 mi
3:53 PM52 °FSunny.14 mph19%30.16 "Hg10 mi
2:53 PM53 °FSunny.15 mph18%30.16 "Hg10 mi
1:53 PM52 °FSunny.15 mph21%30.15 "Hg10 mi
12:53 PM51 °FSunny.20 mph23%30.16 "Hg10 mi
Weather by CustomWeather, © 2015

See weather overviewHow to use our weather pages